Weather in Alekseyevsky

Russia / Mari El Republic     56°44′52″N   48°20′46″E
temp.,
°C
wind,
m/s
gust,
m/s
humid.,
%
clouds,
%
prec.,
mm/h
press.,
hPa
HPBL,
m
27 february, sat
sat2700:00−13se71394100 5.7 1000635
03:00−13ese61194100 7.8 999468
06:00−13e5994100 0.3 998403
09:00−13ene6994100 0.8 999461
12:00−11ene6990100 0.4 1000605
15:00−12ne6990100 0.6 1003627
18:00−13nne51091100 0.1 1005489
21:00−16n5109595 0.1 1006225
28 february, sun
sun2800:00−18n499788 0.0 1007169
03:00−20n499870 0.0 1009152
06:00−22n479936 0.0 1010106
09:00−19n469528 0.0 1011237
12:00−16n469277 0.0 1012358
15:00−15n479188 0.0 1013462
18:00−19n349689 0.0 101555
21:00−21nne339753 0.0 101823
1 march, mon
mon100:00−22n23970 0.0 101920
03:00−23n22980 0.0 102020
06:00−24n22990 0.0 102220
09:00−19n11950 0.0 102379
12:00−15w128849 0.0 1022248
15:00−12wsw238763 0.0 1022359
18:00−15sw349772 0.0 102046
21:00−17ssw479869 0.0 1019116
2 march, tue
tue200:00−16ssw5109793 0.0 1015214
03:00−13ssw6129696 0.1 1011289
06:00−10ssw61194100 0.7 1006406
09:00−7ssw61195100 1.3 1003445
12:00−2s6996100 1.0 1000462
15:000ssw4799100 2.4 998362
18:000wnw4699100 1.5 998295
21:00−1nnw81395100 3.4 999648
3 march, wed
wed300:00−5n4996100 0.1 1000297
03:00−9nnw349469 0.1 100276
06:00−8nnw369690 0.1 1003110
09:00−6nnw489391 0.1 1004307
12:00−3nnw699297 0.1 1006736
15:00−4nnw7109099 0.4 1007840
18:00−8nw498996 0.1 1008191
21:00−10nw359481 0.1 101091